Time,TemperatureF,DewpointF,PressureIn,WindDirection,WindDirectionDegrees,WindSpeedMPH,WindSpeedGustMPH,Humidity,HourlyPrecipIn,Conditions,Clouds,dailyrainin,SoftwareType,DateUTC
2013-01-13 00:02:00,28.0,14.0,-100.00,East,87,5.0,8.0,56,-99.99,,,-99.99,,2013-01-13 08:02:00,
2013-01-13 00:11:00,28.0,14.0,-100.00,East,89,5.0,8.0,55,-99.99,,,-99.99,,2013-01-13 08:11:00,
2013-01-13 00:22:00,29.0,14.0,-100.00,East,87,6.0,9.0,53,-99.99,,,-99.99,,2013-01-13 08:22:00,
2013-01-13 00:32:00,28.0,13.0,-100.00,East,84,6.0,8.0,53,-99.99,,,-99.99,,2013-01-13 08:32:00,
2013-01-13 00:42:00,28.0,13.0,-100.00,East,84,6.0,8.0,52,-99.99,,,-99.99,,2013-01-13 08:42:00,
2013-01-13 00:52:00,29.0,13.0,-100.00,East,84,6.0,8.0,51,-99.99,,,-99.99,,2013-01-13 08:52:00,
2013-01-13 01:02:00,29.0,13.0,-100.00,East,84,6.0,9.0,51,-99.99,,,-99.99,,2013-01-13 09:02:00,
2013-01-13 01:11:00,29.0,13.0,-100.00,East,83,6.0,9.0,51,-99.99,,,-99.99,,2013-01-13 09:11:00,
2013-01-13 01:22:00,29.0,13.0,-100.00,East,81,7.0,9.0,51,-99.99,,,-99.99,,2013-01-13 09:22:00,
2013-01-13 01:32:00,29.0,13.0,-100.00,East,81,6.0,9.0,51,-99.99,,,-99.99,,2013-01-13 09:32:00,
2013-01-13 01:42:00,29.0,14.0,-100.00,ENE,76,6.0,9.0,52,-99.99,,,-99.99,,2013-01-13 09:42:00,
2013-01-13 01:52:00,29.0,14.0,-100.00,ENE,74,6.0,9.0,53,-99.99,,,-99.99,,2013-01-13 09:52:00,
2013-01-13 02:02:00,29.0,14.0,-100.00,ENE,69,7.0,10.0,54,-99.99,,,-99.99,,2013-01-13 10:02:00,
2013-01-13 02:11:00,29.0,14.0,-100.00,ENE,76,7.0,10.0,54,-99.99,,,-99.99,,2013-01-13 10:11:00,
2013-01-13 02:22:00,29.0,15.0,-100.00,ENE,71,6.0,10.0,55,-99.99,,,-99.99,,2013-01-13 10:22:00,
2013-01-13 02:32:00,29.0,15.0,-100.00,ENE,68,7.0,11.0,55,-99.99,,,-99.99,,2013-01-13 10:32:00,
2013-01-13 02:42:00,30.0,16.0,-100.00,ENE,62,7.0,12.0,56,-99.99,,,-99.99,,2013-01-13 10:42:00,
2013-01-13 02:52:00,30.0,17.0,-100.00,ENE,67,7.0,12.0,57,-99.99,,,-99.99,,2013-01-13 10:52:00,
2013-01-13 03:02:00,29.0,16.0,-100.00,ENE,62,7.0,12.0,57,-99.99,,,-99.99,,2013-01-13 11:02:00,
2013-01-13 03:12:00,29.0,16.0,-100.00,ENE,59,8.0,12.0,57,-99.99,,,-99.99,,2013-01-13 11:12:00,
2013-01-13 03:22:00,29.0,15.0,-100.00,ENE,58,8.0,12.0,56,-99.99,,,-99.99,,2013-01-13 11:22:00,
2013-01-13 03:32:00,29.0,15.0,-100.00,ENE,58,8.0,13.0,55,-99.99,,,-99.99,,2013-01-13 11:32:00,
2013-01-13 03:42:00,29.0,15.0,-100.00,NE,56,8.0,12.0,55,-99.99,,,-99.99,,2013-01-13 11:42:00,
2013-01-13 03:52:00,29.0,14.0,-100.00,NE,55,8.0,13.0,54,-99.99,,,-99.99,,2013-01-13 11:52:00,
2013-01-13 04:02:00,29.0,14.0,-100.00,NE,51,9.0,15.0,54,-99.99,,,-99.99,,2013-01-13 12:02:00,
2013-01-13 04:12:00,29.0,14.0,-100.00,NE,46,9.0,15.0,54,-99.99,,,-99.99,,2013-01-13 12:12:00,
2013-01-13 04:22:00,29.0,15.0,-100.00,NE,50,8.0,13.0,55,-99.99,,,-99.99,,2013-01-13 12:22:00,
2013-01-13 04:32:00,29.0,15.0,-100.00,NE,54,8.0,14.0,55,-99.99,,,-99.99,,2013-01-13 12:32:00,
2013-01-13 04:42:00,29.0,15.0,-100.00,NE,53,8.0,12.0,55,-99.99,,,-99.99,,2013-01-13 12:42:00,
2013-01-13 04:52:00,29.0,15.0,-100.00,ENE,60,8.0,13.0,56,-99.99,,,-99.99,,2013-01-13 12:52:00,
2013-01-13 05:02:00,28.0,15.0,-100.00,ENE,61,8.0,12.0,57,-99.99,,,-99.99,,2013-01-13 13:02:00,
2013-01-13 05:12:00,28.0,15.0,-100.00,ENE,65,8.0,13.0,58,-99.99,,,-99.99,,2013-01-13 13:12:00,
2013-01-13 05:22:00,28.0,16.0,-100.00,ENE,70,7.0,10.0,60,-99.99,,,-99.99,,2013-01-13 13:22:00,
2013-01-13 05:32:00,27.0,15.0,-100.00,ENE,68,7.0,12.0,60,-99.99,,,-99.99,,2013-01-13 13:32:00,
2013-01-13 05:42:00,27.0,15.0,-100.00,ENE,68,7.0,12.0,60,-99.99,,,-99.99,,2013-01-13 13:42:00,
2013-01-13 05:53:00,28.0,16.0,-100.00,ENE,58,7.0,12.0,60,-99.99,,,-99.99,,2013-01-13 13:53:00,
2013-01-13 06:02:00,27.0,15.0,-100.00,NE,49,8.0,12.0,60,-99.99,,,-99.99,,2013-01-13 14:02:00,
2013-01-13 06:12:00,27.0,15.0,-100.00,NE,52,8.0,12.0,59,-99.99,,,-99.99,,2013-01-13 14:12:00,
2013-01-13 06:22:00,27.0,14.0,-100.00,NE,52,8.0,12.0,58,-99.99,,,-99.99,,2013-01-13 14:22:00,
2013-01-13 06:32:00,28.0,14.0,-100.00,ENE,58,7.0,12.0,54,-99.99,,,-99.99,,2013-01-13 14:32:00,
2013-01-13 06:42:00,28.0,11.0,-100.00,ENE,63,7.0,13.0,48,-99.99,,,-99.99,,2013-01-13 14:42:00,
2013-01-13 06:52:00,29.0,10.0,-100.00,ENE,61,8.0,13.0,44,-99.99,,,-99.99,,2013-01-13 14:52:00,
2013-01-13 07:02:00,29.0,9.0,-100.00,ENE,64,8.0,11.0,43,-99.99,,,-99.99,,2013-01-13 15:02:00,
2013-01-13 07:12:00,29.0,9.0,-100.00,ENE,66,8.0,12.0,43,-99.99,,,-99.99,,2013-01-13 15:12:00,
2013-01-13 07:22:00,29.0,9.0,-100.00,ENE,57,7.0,11.0,43,-99.99,,,-99.99,,2013-01-13 15:22:00,
2013-01-13 07:33:00,29.0,10.0,-100.00,ENE,57,7.0,12.0,44,-99.99,,,-99.99,,2013-01-13 15:33:00,
2013-01-13 07:42:00,29.0,11.0,-100.00,ENE,65,7.0,14.0,46,-99.99,,,-99.99,,2013-01-13 15:42:00,
2013-01-13 07:52:00,29.0,11.0,-100.00,ENE,64,7.0,12.0,47,-99.99,,,-99.99,,2013-01-13 15:52:00,
2013-01-13 08:03:00,29.0,12.0,-100.00,ENE,67,7.0,12.0,48,-99.99,,,-99.99,,2013-01-13 16:03:00,
2013-01-13 08:12:00,29.0,13.0,-100.00,ENE,71,7.0,12.0,50,-99.99,,,-99.99,,2013-01-13 16:12:00,
2013-01-13 08:22:00,29.0,12.0,-100.00,ENE,72,7.0,12.0,49,-99.99,,,-99.99,,2013-01-13 16:22:00,
2013-01-13 08:33:00,31.0,14.0,-100.00,ENE,68,7.0,13.0,48,-99.99,,,-99.99,,2013-01-13 16:33:00,
2013-01-13 08:42:00,32.0,13.0,-100.00,ENE,67,9.0,14.0,45,-99.99,,,-99.99,,2013-01-13 16:42:00,
2013-01-13 08:52:00,32.0,13.0,-100.00,ENE,71,8.0,15.0,45,-99.99,,,-99.99,,2013-01-13 16:52:00,
2013-01-13 09:02:00,31.0,12.0,-100.00,ENE,78,8.0,13.0,45,-99.99,,,-99.99,,2013-01-13 17:02:00,
2013-01-13 09:12:00,31.0,11.0,-100.00,East,81,7.0,14.0,43,-99.99,,,-99.99,,2013-01-13 17:12:00,
2013-01-13 09:22:00,33.0,8.0,-100.00,ENE,70,10.0,16.0,35,-99.99,,,-99.99,,2013-01-13 17:22:00,
2013-01-13 09:32:00,34.0,7.0,-100.00,ENE,75,9.0,18.0,32,-99.99,,,-99.99,,2013-01-13 17:32:00,
2013-01-13 09:42:00,34.0,6.0,-100.00,ENE,72,9.0,16.0,30,-99.99,,,-99.99,,2013-01-13 17:42:00,
2013-01-13 09:52:00,34.0,7.0,-100.00,ENE,72,9.0,15.0,31,-99.99,,,-99.99,,2013-01-13 17:52:00,
2013-01-13 10:02:00,35.0,9.0,-100.00,ENE,73,9.0,16.0,33,-99.99,,,-99.99,,2013-01-13 18:02:00,
2013-01-13 10:12:00,35.0,9.0,-100.00,ENE,67,8.0,14.0,33,-99.99,,,-99.99,,2013-01-13 18:12:00,
2013-01-13 10:22:00,35.0,9.0,-100.00,ENE,70,9.0,15.0,34,-99.99,,,-99.99,,2013-01-13 18:22:00,
2013-01-13 10:32:00,36.0,10.0,-100.00,ENE,70,9.0,15.0,33,-99.99,,,-99.99,,2013-01-13 18:32:00,
2013-01-13 10:42:00,36.0,9.0,-100.00,ENE,74,9.0,14.0,32,-99.99,,,-99.99,,2013-01-13 18:42:00,
2013-01-13 10:53:00,36.0,9.0,-100.00,ENE,68,7.0,13.0,32,-99.99,,,-99.99,,2013-01-13 18:53:00,
2013-01-13 11:02:00,36.0,8.0,-100.00,ENE,75,8.0,14.0,31,-99.99,,,-99.99,,2013-01-13 19:02:00,
2013-01-13 11:12:00,36.0,8.0,-100.00,ENE,76,7.0,13.0,31,-99.99,,,-99.99,,2013-01-13 19:12:00,
2013-01-13 11:22:00,37.0,9.0,-100.00,ENE,63,7.0,16.0,31,-99.99,,,-99.99,,2013-01-13 19:22:00,
2013-01-13 11:32:00,37.0,10.0,-100.00,ENE,69,7.0,15.0,32,-99.99,,,-99.99,,2013-01-13 19:32:00,
2013-01-13 11:42:00,37.0,9.0,-100.00,ENE,73,6.0,13.0,31,-99.99,,,-99.99,,2013-01-13 19:42:00,
2013-01-13 11:52:00,37.0,9.0,-100.00,ENE,70,7.0,12.0,31,-99.99,,,-99.99,,2013-01-13 19:52:00,
2013-01-13 12:02:00,38.0,9.0,-100.00,ENE,59,7.0,13.0,30,-99.99,,,-99.99,,2013-01-13 20:02:00,
2013-01-13 12:12:00,38.0,9.0,-100.00,ENE,75,7.0,11.0,30,-99.99,,,-99.99,,2013-01-13 20:12:00,
2013-01-13 12:22:00,38.0,10.0,-100.00,ENE,57,5.0,11.0,31,-99.99,,,-99.99,,2013-01-13 20:22:00,
2013-01-13 12:32:00,39.0,11.0,-100.00,ENE,73,5.0,9.0,31,-99.99,,,-99.99,,2013-01-13 20:32:00,
2013-01-13 12:43:00,39.0,11.0,-100.00,East,81,5.0,8.0,31,-99.99,,,-99.99,,2013-01-13 20:43:00,
2013-01-13 12:52:00,39.0,12.0,-100.00,WNW,294,3.0,6.0,32,-99.99,,,-99.99,,2013-01-13 20:52:00,
2013-01-13 13:02:00,40.0,13.0,-100.00,West,280,3.0,5.0,32,-99.99,,,-99.99,,2013-01-13 21:02:00,
2013-01-13 13:12:00,41.0,12.0,-100.00,SSE,160,2.0,6.0,30,-99.99,,,-99.99,,2013-01-13 21:12:00,
2013-01-13 13:22:00,40.0,12.0,-100.00,ESE,110,4.0,8.0,31,-99.99,,,-99.99,,2013-01-13 21:22:00,
2013-01-13 13:32:00,41.0,13.0,-100.00,SSW,200,4.0,10.0,31,-99.99,,,-99.99,,2013-01-13 21:32:00,
2013-01-13 13:42:00,41.0,13.0,-100.00,SSW,202,4.0,9.0,31,-99.99,,,-99.99,,2013-01-13 21:42:00,
2013-01-13 13:52:00,42.0,14.0,-100.00,SSW,208,2.0,7.0,31,-99.99,,,-99.99,,2013-01-13 21:52:00,
2013-01-13 14:02:00,42.0,13.0,-100.00,SSW,208,5.0,11.0,30,-99.99,,,-99.99,,2013-01-13 22:02:00,
2013-01-13 14:12:00,42.0,13.0,-100.00,SW,214,6.0,12.0,30,-99.99,,,-99.99,,2013-01-13 22:12:00,
2013-01-13 14:22:00,42.0,13.0,-100.00,WSW,237,3.0,9.0,30,-99.99,,,-99.99,,2013-01-13 22:22:00,
2013-01-13 14:33:00,43.0,15.0,-100.00,SW,230,4.0,9.0,32,-99.99,,,-99.99,,2013-01-13 22:33:00,
2013-01-13 14:42:00,43.0,15.0,-100.00,SW,230,4.0,9.0,32,-99.99,,,-99.99,,2013-01-13 22:42:00,
2013-01-13 14:52:00,43.0,15.0,-100.00,SW,225,4.0,13.0,32,-99.99,,,-99.99,,2013-01-13 22:52:00,
2013-01-13 15:02:00,42.0,14.0,-100.00,WSW,251,6.0,13.0,32,-99.99,,,-99.99,,2013-01-13 23:02:00,
2013-01-13 15:12:00,43.0,15.0,-100.00,WSW,251,6.0,12.0,32,-99.99,,,-99.99,,2013-01-13 23:12:00,
2013-01-13 15:22:00,42.0,14.0,-100.00,WSW,248,5.0,10.0,32,-99.99,,,-99.99,,2013-01-13 23:22:00,
2013-01-13 15:32:00,42.0,15.0,-100.00,WSW,242,6.0,12.0,33,-99.99,,,-99.99,,2013-01-13 23:32:00,
2013-01-13 15:42:00,42.0,16.0,-100.00,WSW,255,5.0,13.0,34,-99.99,,,-99.99,,2013-01-13 23:42:00,
2013-01-13 15:52:00,42.0,16.0,-100.00,WSW,253,6.0,11.0,34,-99.99,,,-99.99,,2013-01-13 23:52:00,
2013-01-13 16:02:00,42.0,16.0,-100.00,West,259,7.0,13.0,35,-99.99,,,-99.99,,2013-01-14 00:02:00,
2013-01-13 16:12:00,41.0,16.0,-100.00,West,259,5.0,11.0,36,-99.99,,,-99.99,,2013-01-14 00:12:00,
2013-01-13 16:22:00,41.0,18.0,-100.00,West,261,6.0,13.0,39,-99.99,,,-99.99,,2013-01-14 00:22:00,
2013-01-13 16:32:00,41.0,18.0,-100.00,WSW,258,6.0,11.0,39,-99.99,,,-99.99,,2013-01-14 00:32:00,
2013-01-13 16:42:00,40.0,19.0,-100.00,WSW,251,7.0,14.0,42,-99.99,,,-99.99,,2013-01-14 00:42:00,
2013-01-13 16:52:00,39.0,21.0,-100.00,West,261,8.0,14.0,48,-99.99,,,-99.99,,2013-01-14 00:52:00,
2013-01-13 17:02:00,38.0,22.0,-100.00,WSW,258,8.0,12.0,52,-99.99,,,-99.99,,2013-01-14 01:02:00,
2013-01-13 17:12:00,38.0,24.0,-100.00,WSW,257,6.0,11.0,56,-99.99,,,-99.99,,2013-01-14 01:12:00,
2013-01-13 17:22:00,37.0,24.0,-100.00,WSW,248,7.0,13.0,59,-99.99,,,-99.99,,2013-01-14 01:22:00,
2013-01-13 17:32:00,36.0,24.0,-100.00,WSW,251,5.0,9.0,61,-99.99,,,-99.99,,2013-01-14 01:32:00,
2013-01-13 17:42:00,35.0,24.0,-100.00,WSW,249,5.0,9.0,63,-99.99,,,-99.99,,2013-01-14 01:42:00,
2013-01-13 17:52:00,35.0,24.0,-100.00,WSW,253,5.0,10.0,64,-99.99,,,-99.99,,2013-01-14 01:52:00,
2013-01-13 18:02:00,35.0,24.0,-100.00,WSW,252,5.0,8.0,65,-99.99,,,-99.99,,2013-01-14 02:02:00,
2013-01-13 18:12:00,34.0,24.0,-100.00,WSW,251,4.0,7.0,66,-99.99,,,-99.99,,2013-01-14 02:12:00,
2013-01-13 18:22:00,34.0,24.0,-100.00,WSW,247,3.0,6.0,67,-99.99,,,-99.99,,2013-01-14 02:22:00,
2013-01-13 18:32:00,33.0,24.0,-100.00,WSW,253,3.0,5.0,68,-99.99,,,-99.99,,2013-01-14 02:32:00,
2013-01-13 18:42:00,33.0,24.0,-100.00,West,259,2.0,4.0,69,-99.99,,,-99.99,,2013-01-14 02:42:00,
2013-01-13 18:53:00,33.0,24.0,-100.00,West,259,2.0,4.0,69,-99.99,,,-99.99,,2013-01-14 02:53:00,
2013-01-13 19:02:00,33.0,24.0,-100.00,WSW,249,3.0,5.0,70,-99.99,,,-99.99,,2013-01-14 03:02:00,
2013-01-13 19:12:00,33.0,25.0,-100.00,WSW,254,2.0,4.0,71,-99.99,,,-99.99,,2013-01-14 03:12:00,
2013-01-13 19:22:00,32.0,24.0,-100.00,WSW,252,2.0,3.0,71,-99.99,,,-99.99,,2013-01-14 03:22:00,
2013-01-13 19:32:00,32.0,24.0,-100.00,WSW,243,2.0,2.0,72,-99.99,,,-99.99,,2013-01-14 03:32:00,
2013-01-13 19:42:00,32.0,24.0,-100.00,SW,229,1.0,2.0,72,-99.99,,,-99.99,,2013-01-14 03:42:00,
2013-01-13 19:52:00,32.0,24.0,-100.00,SW,218,2.0,3.0,73,-99.99,,,-99.99,,2013-01-14 03:52:00,
2013-01-13 20:02:00,32.0,24.0,-100.00,SW,229,3.0,4.0,73,-99.99,,,-99.99,,2013-01-14 04:02:00,
2013-01-13 20:12:00,32.0,24.0,-100.00,SW,215,1.0,3.0,73,-99.99,,,-99.99,,2013-01-14 04:12:00,
2013-01-13 20:22:00,31.0,24.0,-100.00,ENE,76,1.0,3.0,75,-99.99,,,-99.99,,2013-01-14 04:22:00,
2013-01-13 20:32:00,31.0,24.0,-100.00,ESE,119,3.0,3.0,75,-99.99,,,-99.99,,2013-01-14 04:32:00,
2013-01-13 20:42:00,32.0,24.0,-100.00,SE,142,2.0,4.0,73,-99.99,,,-99.99,,2013-01-14 04:42:00,
2013-01-13 20:52:00,32.0,24.0,-100.00,SE,127,1.0,2.0,73,-99.99,,,-99.99,,2013-01-14 04:52:00,
2013-01-13 21:03:00,30.0,23.0,-100.00,East,94,3.0,5.0,75,-99.99,,,-99.99,,2013-01-14 05:03:00,
2013-01-13 21:12:00,29.0,23.0,-100.00,ESE,108,4.0,6.0,78,-99.99,,,-99.99,,2013-01-14 05:12:00,
2013-01-13 21:22:00,30.0,22.0,-100.00,East,101,5.0,6.0,72,-99.99,,,-99.99,,2013-01-14 05:22:00,
2013-01-13 21:32:00,30.0,15.0,-100.00,ESE,110,5.0,7.0,53,-99.99,,,-99.99,,2013-01-14 05:32:00,
2013-01-13 21:42:00,30.0,14.0,-100.00,ESE,123,4.0,5.0,51,-99.99,,,-99.99,,2013-01-14 05:42:00,
2013-01-13 21:52:00,29.0,13.0,-100.00,ESE,118,4.0,7.0,50,-99.99,,,-99.99,,2013-01-14 05:52:00,
2013-01-13 22:02:00,29.0,14.0,-100.00,East,101,3.0,6.0,53,-99.99,,,-99.99,,2013-01-14 06:02:00,
2013-01-13 22:12:00,29.0,14.0,-100.00,East,97,3.0,4.0,53,-99.99,,,-99.99,,2013-01-14 06:12:00,
2013-01-13 22:22:00,29.0,13.0,-100.00,ESE,102,3.0,4.0,51,-99.99,,,-99.99,,2013-01-14 06:22:00,
2013-01-13 22:32:00,30.0,15.0,-100.00,ENE,65,3.0,5.0,52,-99.99,,,-99.99,,2013-01-14 06:32:00,
2013-01-13 22:42:00,30.0,14.0,-100.00,NE,56,5.0,9.0,50,-99.99,,,-99.99,,2013-01-14 06:42:00,
2013-01-13 22:52:00,31.0,14.0,-100.00,NE,49,5.0,9.0,48,-99.99,,,-99.99,,2013-01-14 06:52:00,
2013-01-13 23:02:00,31.0,14.0,-100.00,NE,56,6.0,9.0,48,-99.99,,,-99.99,,2013-01-14 07:02:00,
2013-01-13 23:12:00,31.0,14.0,-100.00,NE,56,7.0,12.0,48,-99.99,,,-99.99,,2013-01-14 07:12:00,
2013-01-13 23:22:00,31.0,14.0,-100.00,ENE,59,7.0,13.0,49,-99.99,,,-99.99,,2013-01-14 07:22:00,
2013-01-13 23:32:00,30.0,14.0,-100.00,ENE,65,7.0,12.0,50,-99.99,,,-99.99,,2013-01-14 07:32:00,
2013-01-13 23:42:00,30.0,14.0,-100.00,ENE,65,7.0,12.0,50,-99.99,,,-99.99,,2013-01-14 07:42:00,
2013-01-13 23:52:00,30.0,14.0,-100.00,ENE,65,8.0,13.0,50,-99.99,,,-99.99,,2013-01-14 07:52:00,